Time,TemperatureF,DewpointF,PressureIn,WindDirection,WindDirectionDegrees,WindSpeedMPH,WindSpeedGustMPH,Humidity,HourlyPrecipIn,Conditions,Clouds,dailyrainin,SoftwareType,DateUTC
2013-05-17 00:02:00,52.0,40.0,29.99,SW,223,2.0,2.0,63,0.01,,,0.03,,2013-05-17 07:02:00,
2013-05-17 00:21:00,52.0,40.0,29.99,SW,220,2.0,2.0,64,0.01,,,0.03,,2013-05-17 07:21:00,
2013-05-17 00:32:00,52.0,40.0,29.99,SW,220,2.0,0.0,64,0.01,,,0.03,,2013-05-17 07:32:00,
2013-05-17 00:43:00,52.0,40.0,29.99,SW,220,2.0,0.0,64,0.01,,,0.03,,2013-05-17 07:43:00,
2013-05-17 00:53:00,52.0,40.0,29.99,SW,220,2.0,0.0,64,0.01,,,0.03,,2013-05-17 07:53:00,
2013-05-17 01:02:00,52.0,40.0,29.99,SW,220,2.0,0.0,64,0.01,,,0.03,,2013-05-17 08:02:00,
2013-05-17 01:12:00,52.0,40.0,29.99,SW,220,2.0,0.0,64,0.01,,,0.03,,2013-05-17 08:12:00,
2013-05-17 01:22:00,52.0,40.0,29.99,SW,220,2.0,0.0,64,0.01,,,0.03,,2013-05-17 08:22:00,
2013-05-17 01:33:00,52.0,40.0,29.99,SW,220,2.0,0.0,64,0.01,,,0.03,,2013-05-17 08:33:00,
2013-05-17 01:42:00,52.0,40.0,29.99,SW,220,2.0,0.0,64,0.01,,,0.03,,2013-05-17 08:42:00,
2013-05-17 01:52:00,52.0,40.0,29.99,SW,220,2.0,0.0,64,0.01,,,0.03,,2013-05-17 08:52:00,
2013-05-17 02:02:00,52.0,40.0,29.99,SW,220,2.0,0.0,64,0.01,,,0.03,,2013-05-17 09:02:00,
2013-05-17 02:22:00,52.0,40.0,29.99,SW,220,2.0,0.0,64,0.01,,,0.03,,2013-05-17 09:22:00,
2013-05-17 02:33:00,52.0,40.0,29.99,SW,220,2.0,0.0,64,0.01,,,0.03,,2013-05-17 09:33:00,
2013-05-17 02:42:00,52.0,40.0,29.99,SW,220,2.0,0.0,64,0.01,,,0.03,,2013-05-17 09:42:00,
2013-05-17 02:53:00,52.0,40.0,29.99,SW,220,2.0,0.0,64,0.01,,,0.03,,2013-05-17 09:53:00,
2013-05-17 03:03:00,52.0,40.0,29.99,SW,220,2.0,0.0,64,0.01,,,0.03,,2013-05-17 10:03:00,
2013-05-17 03:12:00,52.0,40.0,29.99,SW,220,2.0,0.0,64,0.01,,,0.03,,2013-05-17 10:12:00,
2013-05-17 03:23:00,52.0,40.0,29.99,SW,220,2.0,0.0,64,0.01,,,0.03,,2013-05-17 10:23:00,
2013-05-17 03:32:00,52.0,40.0,29.99,SW,220,2.0,0.0,64,0.01,,,0.03,,2013-05-17 10:32:00,
2013-05-17 03:42:00,52.0,40.0,29.99,SW,220,2.0,0.0,64,0.01,,,0.03,,2013-05-17 10:42:00,
2013-05-17 03:53:00,52.0,40.0,29.99,SW,220,2.0,0.0,64,0.01,,,0.03,,2013-05-17 10:53:00,
2013-05-17 04:02:00,52.0,40.0,29.99,SW,220,2.0,0.0,64,0.01,,,0.03,,2013-05-17 11:02:00,
2013-05-17 04:22:00,52.0,40.0,29.99,SW,220,2.0,0.0,64,0.01,,,0.03,,2013-05-17 11:22:00,
2013-05-17 04:33:00,52.0,40.0,29.99,SW,220,2.0,0.0,64,0.01,,,0.03,,2013-05-17 11:33:00,
2013-05-17 04:42:00,52.0,40.0,29.99,SW,220,2.0,0.0,64,0.01,,,0.03,,2013-05-17 11:42:00,
2013-05-17 04:52:00,52.0,40.0,29.99,SW,220,2.0,0.0,64,0.01,,,0.03,,2013-05-17 11:52:00,
2013-05-17 05:02:00,52.0,40.0,29.99,SW,220,2.0,0.0,64,0.01,,,0.03,,2013-05-17 12:02:00,
2013-05-17 05:11:00,52.0,40.0,29.99,SW,220,2.0,0.0,64,0.01,,,0.03,,2013-05-17 12:11:00,
2013-05-17 05:23:00,52.0,40.0,29.99,SW,220,2.0,0.0,64,0.01,,,0.03,,2013-05-17 12:23:00,
2013-05-17 05:32:00,52.0,40.0,29.99,SW,220,2.0,0.0,64,0.01,,,0.03,,2013-05-17 12:32:00,
2013-05-17 05:42:00,52.0,40.0,29.99,SW,220,2.0,0.0,64,0.01,,,0.03,,2013-05-17 12:42:00,
2013-05-17 05:53:00,52.0,40.0,29.99,SW,220,2.0,0.0,64,0.01,,,0.03,,2013-05-17 12:53:00,
2013-05-17 06:03:00,52.0,40.0,29.99,SW,220,2.0,0.0,64,0.01,,,0.03,,2013-05-17 13:03:00,
2013-05-17 06:23:00,52.0,40.0,29.99,SW,220,2.0,0.0,64,0.01,,,0.03,,2013-05-17 13:23:00,
2013-05-17 06:33:00,52.0,40.0,29.99,SW,220,2.0,0.0,64,0.01,,,0.03,,2013-05-17 13:33:00,
2013-05-17 06:42:00,52.0,40.0,29.99,SW,220,2.0,0.0,64,0.01,,,0.03,,2013-05-17 13:42:00,
2013-05-17 06:52:00,52.0,40.0,29.99,SW,220,2.0,0.0,64,0.01,,,0.03,,2013-05-17 13:52:00,
2013-05-17 07:01:00,50.0,46.0,30.01,SW,224,1.0,2.0,87,0.00,,,0.03,,2013-05-17 14:01:00,
2013-05-17 07:12:00,50.0,46.0,30.01,SW,224,1.0,2.0,87,0.00,,,0.03,,2013-05-17 14:12:00,
2013-05-17 07:22:00,50.0,47.0,30.01,SW,224,2.0,3.0,89,0.00,,,0.03,,2013-05-17 14:22:00,
2013-05-17 07:34:00,50.0,47.0,30.01,WSW,240,1.0,4.0,88,0.00,,,0.03,,2013-05-17 14:34:00,
2013-05-17 07:42:00,50.0,47.0,30.01,WSW,240,1.0,4.0,88,0.00,,,0.03,,2013-05-17 14:42:00,
2013-05-17 07:53:00,50.0,46.0,30.02,SW,226,2.0,2.0,86,0.00,,,0.03,,2013-05-17 14:53:00,
2013-05-17 08:03:00,50.0,47.0,30.02,SW,226,2.0,2.0,91,0.00,,,0.03,,2013-05-17 15:03:00,
2013-05-17 08:13:00,50.0,47.0,30.02,SW,226,2.0,2.0,91,0.00,,,0.03,,2013-05-17 15:13:00,
2013-05-17 08:25:00,51.0,47.0,30.02,WSW,256,1.0,2.0,87,0.00,,,0.03,,2013-05-17 15:25:00,
2013-05-17 08:37:00,51.0,48.0,30.02,SSW,213,1.0,2.0,88,0.00,,,0.03,,2013-05-17 15:37:00,
2013-05-17 08:47:00,51.0,48.0,30.02,SSW,213,1.0,2.0,88,0.00,,,0.03,,2013-05-17 15:47:00,
2013-05-17 08:56:00,51.0,48.0,30.02,SSW,213,1.0,2.0,88,0.00,,,0.03,,2013-05-17 15:56:00,
2013-05-17 09:07:00,51.0,48.0,30.02,SW,214,0.0,0.0,88,0.00,,,0.03,,2013-05-17 16:07:00,
2013-05-17 09:13:00,51.0,48.0,30.02,SW,214,0.0,0.0,88,0.00,,,0.03,,2013-05-17 16:13:00,
2013-05-17 09:26:00,52.0,48.0,30.02,SSW,205,1.0,2.0,87,0.00,,,0.03,,2013-05-17 16:26:00,
2013-05-17 09:37:00,52.0,49.0,30.02,SSW,205,1.0,3.0,88,0.00,,,0.03,,2013-05-17 16:37:00,
2013-05-17 09:49:00,52.0,49.0,30.02,SSW,205,1.0,3.0,88,0.00,,,0.03,,2013-05-17 16:49:00,
2013-05-17 09:56:00,52.0,49.0,30.02,SSW,205,1.0,3.0,88,0.00,,,0.03,,2013-05-17 16:56:00,
2013-05-17 10:07:00,53.0,48.0,30.02,WSW,238,1.0,3.0,82,0.00,,,0.03,,2013-05-17 17:07:00,
2013-05-17 10:18:00,53.0,48.0,30.02,WSW,238,1.0,3.0,82,0.00,,,0.03,,2013-05-17 17:18:00,
2013-05-17 10:29:00,53.0,46.0,30.02,WSW,238,1.0,1.0,78,0.00,,,0.03,,2013-05-17 17:29:00,
2013-05-17 10:40:00,54.0,-99.9,30.02,WSW,238,1.0,1.0,73,0.00,,,0.03,,2013-05-17 17:40:00,
2013-05-17 10:48:00,54.0,46.0,30.02,WSW,238,1.0,1.0,73,0.00,,,0.03,,2013-05-17 17:48:00,
2013-05-17 11:00:00,54.0,45.0,30.03,SW,220,1.0,2.0,71,0.00,,,0.03,,2013-05-17 18:00:00,
2013-05-17 11:08:00,54.0,43.0,30.03,SSE,166,0.0,1.0,66,0.00,,,0.03,,2013-05-17 18:08:00,
2013-05-17 11:30:00,55.0,43.0,30.03,West,268,2.0,3.0,64,0.00,,,0.03,,2013-05-17 18:30:00,
2013-05-17 11:40:00,55.0,43.0,30.03,West,268,2.0,3.0,64,0.00,,,0.03,,2013-05-17 18:40:00,
2013-05-17 11:50:00,-999.0,-99.9,30.03,West,268,2.0,3.0,64,0.00,,,0.03,,2013-05-17 18:50:00,
2013-05-17 12:00:00,56.0,43.0,30.03,South,180,1.0,3.0,62,0.00,,,0.03,,2013-05-17 19:00:00,
2013-05-17 12:10:00,56.0,44.0,30.03,ESE,106,1.0,3.0,64,0.00,,,0.03,,2013-05-17 19:10:00,
2013-05-17 12:20:00,56.0,43.0,30.03,South,191,1.0,4.0,61,0.00,,,0.03,,2013-05-17 19:20:00,
2013-05-17 12:30:00,56.0,43.0,30.03,South,191,1.0,4.0,61,0.00,,,0.03,,2013-05-17 19:30:00,
2013-05-17 12:40:00,56.0,43.0,30.03,South,191,1.0,4.0,61,0.00,,,0.03,,2013-05-17 19:40:00,
2013-05-17 12:47:00,57.0,46.0,30.03,WSW,243,1.0,4.0,66,0.00,,,0.03,,2013-05-17 19:47:00,
2013-05-17 12:50:00,56.0,43.0,30.03,South,191,1.0,4.0,61,0.00,,,0.03,,2013-05-17 19:50:00,
2013-05-17 13:00:00,56.0,-99.9,30.03,South,170,2.0,4.0,67,0.00,,,0.03,,2013-05-17 20:00:00,
2013-05-17 13:09:00,57.0,46.0,30.03,WSW,243,1.0,4.0,66,0.00,,,0.03,,2013-05-17 20:09:00,
2013-05-17 13:20:00,57.0,46.0,30.03,WSW,243,1.0,4.0,66,0.00,,,0.03,,2013-05-17 20:20:00,
2013-05-17 13:30:00,57.0,46.0,30.03,WSW,243,1.0,4.0,66,0.00,,,0.03,,2013-05-17 20:30:00,
2013-05-17 13:40:00,57.0,46.0,30.03,WSW,243,1.0,4.0,66,0.00,,,0.03,,2013-05-17 20:40:00,
2013-05-17 13:58:00,57.0,46.0,30.03,SSW,200,1.0,3.0,67,0.00,,,0.03,,2013-05-17 20:58:00,
2013-05-17 14:07:00,57.0,46.0,30.03,SSW,200,1.0,3.0,67,0.00,,,0.03,,2013-05-17 21:07:00,
2013-05-17 14:16:00,57.0,46.0,30.03,SSW,200,1.0,3.0,67,0.00,,,0.03,,2013-05-17 21:16:00,
2013-05-17 14:25:00,58.0,46.0,30.03,SSW,210,3.0,5.0,65,0.00,,,0.03,,2013-05-17 21:25:00,
2013-05-17 14:39:00,58.0,46.0,30.03,SSW,210,3.0,5.0,65,0.00,,,0.03,,2013-05-17 21:39:00,
2013-05-17 14:49:00,59.0,47.0,30.03,South,177,2.0,3.0,64,0.00,,,0.03,,2013-05-17 21:49:00,
2013-05-17 14:57:00,59.0,47.0,30.03,South,177,2.0,3.0,64,0.00,,,0.03,,2013-05-17 21:57:00,
2013-05-17 15:06:00,59.0,47.0,30.03,South,177,2.0,3.0,64,0.00,,,0.03,,2013-05-17 22:06:00,
2013-05-17 15:17:00,59.0,47.0,30.03,South,177,2.0,3.0,64,0.00,,,0.03,,2013-05-17 22:17:00,
2013-05-17 15:28:00,59.0,48.0,30.03,SW,235,2.0,3.0,66,0.00,,,0.03,,2013-05-17 22:28:00,
2013-05-17 15:38:00,59.0,48.0,30.03,WSW,247,0.0,1.0,66,0.00,,,0.03,,2013-05-17 22:38:00,
2013-05-17 15:47:00,59.0,48.0,30.03,WSW,247,0.0,1.0,66,0.00,,,0.03,,2013-05-17 22:47:00,
2013-05-17 15:55:00,60.0,48.0,30.03,SW,216,2.0,2.0,64,0.00,,,0.03,,2013-05-17 22:55:00,
2013-05-17 16:04:00,60.0,48.0,30.03,SSW,203,1.0,1.0,65,0.00,,,0.03,,2013-05-17 23:04:00,
2013-05-17 16:12:00,60.0,48.0,30.03,SSW,203,1.0,1.0,65,0.00,,,0.03,,2013-05-17 23:12:00,
2013-05-17 16:23:00,61.0,48.0,30.02,SSE,150,1.0,4.0,62,0.00,,,0.03,,2013-05-17 23:23:00,
2013-05-17 16:37:00,61.0,48.0,30.02,SSE,150,1.0,4.0,62,0.00,,,0.03,,2013-05-17 23:37:00,
2013-05-17 16:47:00,61.0,48.0,30.02,SSE,150,1.0,4.0,62,0.00,,,0.03,,2013-05-17 23:47:00,
2013-05-17 16:53:00,61.0,48.0,30.02,SSE,150,1.0,4.0,62,0.00,,,0.03,,2013-05-17 23:53:00,
2013-05-17 17:02:00,60.0,47.0,30.03,SSW,201,2.0,5.0,62,0.00,,,0.03,,2013-05-18 00:02:00,
2013-05-17 17:14:00,60.0,47.0,30.03,SSW,201,2.0,5.0,62,0.00,,,0.03,,2013-05-18 00:14:00,
2013-05-17 17:21:00,60.0,47.0,30.03,SSW,202,2.0,5.0,61,0.00,,,0.03,,2013-05-18 00:21:00,
2013-05-17 17:33:00,60.0,47.0,30.03,SSE,156,2.0,4.0,61,0.00,,,0.03,,2013-05-18 00:33:00,
2013-05-17 17:44:00,60.0,47.0,30.03,SSE,156,2.0,4.0,61,0.00,,,0.03,,2013-05-18 00:44:00,
2013-05-17 17:54:00,60.0,48.0,30.03,South,180,0.0,7.0,64,0.00,,,0.03,,2013-05-18 00:54:00,
2013-05-17 18:02:00,60.0,48.0,30.03,South,180,0.0,7.0,64,0.00,,,0.03,,2013-05-18 01:02:00,
2013-05-17 18:11:00,59.0,47.0,30.03,SW,224,3.0,3.0,65,0.00,,,0.01,,2013-05-18 01:11:00,
2013-05-17 18:13:00,60.0,48.0,30.03,South,180,0.0,7.0,64,0.00,,,0.03,,2013-05-18 01:13:00,
2013-05-17 18:23:00,60.0,48.0,30.03,SSW,199,2.0,3.0,65,0.00,,,0.03,,2013-05-18 01:23:00,
2013-05-17 18:31:00,59.0,47.0,30.03,SW,224,3.0,3.0,65,0.00,,,0.01,,2013-05-18 01:31:00,
2013-05-17 18:42:00,59.0,47.0,30.03,SW,224,3.0,3.0,65,0.00,,,0.01,,2013-05-18 01:42:00,
2013-05-17 18:52:00,59.0,47.0,30.03,SW,224,3.0,3.0,65,0.00,,,0.01,,2013-05-18 01:52:00,
2013-05-17 19:02:00,59.0,47.0,30.03,SW,224,3.0,3.0,65,0.00,,,0.01,,2013-05-18 02:02:00,
2013-05-17 19:22:00,59.0,47.0,30.03,South,179,4.0,5.0,65,0.00,,,0.01,,2013-05-18 02:22:00,
2013-05-17 19:31:00,59.0,47.0,30.03,South,179,4.0,5.0,65,0.00,,,0.01,,2013-05-18 02:31:00,
2013-05-17 19:42:00,59.0,47.0,30.03,South,179,4.0,5.0,65,0.00,,,0.01,,2013-05-18 02:42:00,
2013-05-17 19:53:00,57.0,46.0,30.03,WNW,286,1.0,4.0,67,0.00,,,0.01,,2013-05-18 02:53:00,
2013-05-17 20:02:00,57.0,47.0,30.04,SSW,197,3.0,4.0,69,0.00,,,0.01,,2013-05-18 03:02:00,
2013-05-17 20:12:00,56.0,46.0,30.04,SSE,162,2.0,3.0,70,0.00,,,0.01,,2013-05-18 03:12:00,
2013-05-17 20:22:00,56.0,46.0,30.04,SSE,162,2.0,3.0,70,0.00,,,0.01,,2013-05-18 03:22:00,
2013-05-17 20:32:00,56.0,46.0,30.04,SSW,208,2.0,3.0,70,0.00,,,0.01,,2013-05-18 03:32:00,
2013-05-17 20:43:00,56.0,46.0,30.04,SSW,208,2.0,3.0,70,0.00,,,0.01,,2013-05-18 03:43:00,
2013-05-17 20:53:00,55.0,45.0,30.05,SW,221,1.0,3.0,70,0.00,,,0.01,,2013-05-18 03:53:00,
2013-05-17 21:02:00,55.0,45.0,30.05,South,172,1.0,2.0,70,0.00,,,0.01,,2013-05-18 04:02:00,
2013-05-17 21:12:00,55.0,45.0,30.05,South,172,1.0,2.0,70,0.00,,,0.01,,2013-05-18 04:12:00,
2013-05-17 21:22:00,54.0,44.0,30.05,South,191,2.0,3.0,69,0.00,,,0.01,,2013-05-18 04:22:00,
2013-05-17 21:32:00,53.0,43.0,30.06,WSW,240,2.0,2.0,69,0.00,,,0.01,,2013-05-18 04:32:00,
2013-05-17 21:42:00,53.0,43.0,30.06,WSW,240,2.0,2.0,69,0.00,,,0.01,,2013-05-18 04:42:00,
2013-05-17 21:52:00,53.0,43.0,30.07,SW,217,1.0,3.0,70,0.00,,,0.01,,2013-05-18 04:52:00,
2013-05-17 22:02:00,53.0,43.0,30.07,SW,217,1.0,3.0,70,0.00,,,0.01,,2013-05-18 05:02:00,
2013-05-17 22:12:00,53.0,43.0,30.07,SW,217,1.0,3.0,70,0.00,,,0.01,,2013-05-18 05:12:00,
2013-05-17 22:21:00,52.0,44.0,30.08,WSW,242,1.0,2.0,73,0.00,,,0.00,,2013-05-18 05:21:00,
2013-05-17 22:32:00,52.0,44.0,30.08,WSW,242,1.0,2.0,73,0.00,,,0.00,,2013-05-18 05:32:00,
2013-05-17 22:42:00,52.0,44.0,30.08,WSW,242,1.0,2.0,73,0.00,,,0.00,,2013-05-18 05:42:00,
2013-05-17 22:52:00,52.0,42.0,30.08,SW,220,1.0,3.0,68,0.00,,,0.00,,2013-05-18 05:52:00,
2013-05-17 23:01:00,51.0,40.0,30.09,SW,219,1.0,2.0,66,0.00,,,0.00,,2013-05-18 06:01:00,
2013-05-17 23:11:00,51.0,38.0,30.09,SW,224,1.0,2.0,62,0.00,,,0.00,,2013-05-18 06:11:00,
2013-05-17 23:21:00,51.0,38.0,30.09,SW,224,1.0,2.0,62,0.00,,,0.00,,2013-05-18 06:21:00,
2013-05-17 23:31:00,51.0,38.0,30.09,SW,224,1.0,2.0,62,0.00,,,0.00,,2013-05-18 06:31:00,
2013-05-17 23:41:00,51.0,38.0,30.09,SW,224,1.0,2.0,62,0.00,,,0.00,,2013-05-18 06:41:00,
2013-05-17 23:52:00,50.0,47.0,30.09,SW,224,1.0,2.0,90,0.00,,,0.00,,2013-05-18 06:52:00,